Weather in Cascavel

Brazil     4°07′49″S   38°14′14″W
temp.,
°C
wind,
m/s
gust,
m/s
humid.,
%
clouds,
%
prec.,
mm/h
press.,
hPa
HPBL,
m
6 march, sat
sat600:00+24ene299394 3.3 1011277
03:00+23ese269556 3.8 1010169
06:00+23sse229771 0.1 101195
09:00+27ese368284 1.2 1013818
12:00+30e366661 1.9 10111296
15:00+30ene476180 2.3 1009832
18:00+25ene388726 0.2 1010415
21:00+25ene4119519 3.2 1012533
7 march, sun
sun700:00+24e3109480 2.2 1012520
03:00+25e289290 2.3 1010393
06:00+24se2595100 0.2 1011185
09:00+28ese367594 0.4 10131000
12:00+30e576827 0.7 10121086
15:00+30ene576414 0.9 10101124
18:00+25ene38870 0.0 1010416
21:00+24ene399321 1.4 1012393
8 march, mon
mon800:00+24ene279419 0.1 1011276
03:00+23e239642 0.4 101095
06:00+23se26971 2.8 1011218
09:00+27e46812 4.4 1013840
12:00+29e467327 2.3 10111043
15:00+29ene467013 4.2 1009939
18:00+25ene27880 0.0 1009287
21:00+25ene279011 0.0 1010390
9 march, tue
tue900:00+25ene289148 0.1 1010363
03:00+23e279641 3.5 1009219
06:00+23ese149771 0.3 1010123
09:00+27e358565 3.3 1012686
12:00+28e358015 4.2 1010863
15:00+28ene467650 6.2 1008780
18:00+25ne248926 0.1 1008108
21:00+24ne258923 0.1 1010190
10 march, wed
wed1000:00+24ne24883 0.0 1010110
03:00+23e12921 0.0 100970
06:00+23se12951 0.9 101039
09:00+27e368215 4.1 1012793
12:00+28ene36810 5.3 1010842
15:00+29ene46679 6.6 10071025
18:00+25ne268623 0.0 1008212
21:00+25ene288611 0.1 1010348